Skip Page Navigation
NASA JPL Caltech
NASA Logo - Jet Propulsion Laboratory + View the NASA Portal
+ Center for Near-Earth Object Studies
JPL Home Earth Solar System Stars & Galaxies Technology
JPL Solar System Dynamics
BODIES ORBITS EPHEMERIDES TOOLS PHYSICAL DATA DISCOVERY FAQ SITE MAP
JPL Small-Body Database Browser
Search: [ help ]  
308680 (2006 DY62)
Classification: Outer Main-belt Asteroid          SPK-ID: 2308680
Ephemeris | Orbit Diagram | Orbital Elements | Mission Design | Physical Parameters | Discovery Circumstances ]

[ hide orbit diagram ]

For accurate long-term ephemerides, please instead use our Horizons system.This orbit viewer was implemented using two-body methods, and hence should not be used for determining accurate long-term trajectories (over several years or decades) or planetary encounter circumstances.


[ revert to old Java-based viewer ]

Orbital Elements at Epoch 2459000.5 (2020-May-31.0) TDB
Reference: JPL 16 (heliocentric ecliptic J2000)
 Element Value Uncertainty (1-sigma)   Units 
e .4271686769231644 9.223e-08  
a 3.261583539976479 2.6229e-08 au
q 1.868337214530356 2.9087e-07 au
i 24.03836815631236 9.2422e-06 deg
node 61.83354903594829 1.2481e-05 deg
peri 167.0660777758963 1.4085e-05 deg
M 127.5873767161411 4.8296e-06 deg
tp 2458237.988506431348
(2018-Apr-29.48850643)
2.4947e-05 TDB
period 2151.499190201527
5.89
2.5953e-05
7.106e-08
d
yr
n .1673251849870692 2.0184e-09 deg/d
Q 4.654829865422603 3.7433e-08 au
  Orbit Determination Parameters
   # obs. used (total)      721  
   data-arc span      9453 days (25.88 yr)  
   first obs. used      1994-01-11  
   last obs. used      2019-11-29  
   planetary ephem.      DE431  
   SB-pert. ephem.      SB431-N16  
   condition code      0  
   norm. resid. RMS      .41401  
   source      ORB  
   producer      Otto Matic  
   solution date      2019-Dec-14 18:56:54  

Additional Information
 Earth MOID = .862774 au 
 Jupiter MOID = .409745 au 
 T_jup = 2.903 
[ hide covariance matrix ]
Orbital Elements at Epoch 2457219.5 (2015-Jul-16.0) TDB
Reference: JPL 16 (heliocentric ecliptic J2000)
 Element Value Uncertainty (1-sigma)   Units 
e .4269579823588555 9.2211e-08  
q 1.869352702697162 2.9085e-07 au
tp 2458238.710484565062
(2018-Apr-30.21048457)
2.4959e-05 TDB
node 61.82526009138751 1.2488e-05 deg
peri 167.0697734614157 1.4094e-05 deg
i 24.02993659560741 9.2402e-06 deg
  Orbit Determination Parameters
   # obs. used (total)      721  
   data-arc span      9453 days (25.88 yr)  
   first obs. used      1994-01-11  
   last obs. used      2019-11-29  
   planetary ephem.      DE431  
   SB-pert. ephem.      SB431-N16  
   condition code      0  
   norm. resid. RMS      .41401  
   source      ORB  
   producer      Otto Matic  
   solution date      2019-Dec-14 18:56:54  

Additional Information
 Jupiter MOID = .409745 au 
 T_jup = 2.903 
Orbit Covariance (6×6)
  e q tp node peri i
e 8.502940945193066E-15 -2.680022708104302E-14 2.554769055789801E-13 1.437620331993792E-14 -7.98893332507168E-14 -1.179722321797576E-13
q -2.680022708104302E-14 8.459570273668294E-14 -7.388239295546734E-13 -4.591572172867001E-14 2.459874783482752E-13 3.704635075782402E-13
tp 2.554769055789801E-13 -7.388239295546734E-13 6.229302735513523E-10 -4.918101169477852E-13 1.669293512796699E-10 -5.330701607716174E-13
node 1.437620331993792E-14 -4.591572172867001E-14 -4.918101169477852E-13 1.559527592558316E-10 -1.419498689576326E-10 -4.195671510865972E-11
peri -7.98893332507168E-14 2.459874783482752E-13 1.669293512796699E-10 -1.419498689576326E-10 1.986272057978702E-10 4.057542645433591E-11
i -1.179722321797576E-13 3.704635075782402E-13 -5.330701607716174E-13 -4.195671510865972E-11 4.057542645433591E-11 8.538135567138933E-11

Ephemeris | Orbit Diagram | Orbital Elements | Mission Design | Physical Parameters | Discovery Circumstances ]

Physical Parameter Table
Parameter Symbol Value Units Sigma Reference Notes
absolute magnitude H 14.5   n/a MPO455273  

308680 (2006 DY62)          Discovered 2006-Feb-25 by Lowe, A. at Mayhill
Reference: 20111210/Numbers.arcLast Updated: 2011-12-12

Alternate Designations
 2006 DY62 = 2000 HJ84 
Ephemeris | Orbit Diagram | Orbital Elements | Mission Design | Physical Parameters | Discovery Circumstances ]
ABOUT SSD CREDITS/AWARDS PRIVACY/COPYRIGHT GLOSSARY LINKS
FirstGov 2020-Oct-28 18:50 UT
(server date/time)  
NASA Home Page
Site Manager:   Ryan S. Park
Webmaster  Alan B. Chamberlin